Regional Weather Roundup
Issued by NWS Sterling, VA

Home | Current Version | Previous Version | Graphics & Text | Print | Product List | Glossary On
Versions: 1 2 3 4 5 6 7 8 9 10 11 12 13 14 15 16 17 18 19 20 21 22 23 24 25 26 27
000
ASUS41 KLWX 261611
RWRLWX

REGIONAL WEATHER ROUNDUP
NATIONAL WEATHER SERVICE BALTIMORE MD/WASHINGTON DC
1200 PM EDT WED JUL 26 2017

Note: "FAIR" indicates few or no clouds below 12,000 feet
with no significant weather and/or obstructions to visibility.
 TC=TEMPERATURE CELSIUS

 * =Non NWS site. Station does not report precipitation (e.g. rain,
    snow, etc.), thunder, or fog.

DCZ001-MDZ009-015-VAZ040>042-051-053>054-261700-
WASHINGTON METRO

CITY           SKY/WX    TMP DP  RH WIND       PRES   REMARKS
WASHINGTON NAT MOSUNNY   81  63  54 SE3       30.20F
DULLES         CLOUDY    77  61  57 VRB3      30.20F
ANDREWS AFB    PTSUNNY   79  62  56 CALM      30.20S
FT BELVOIR     PTSUNNY   80  63  55 S6        30.20S
QUANTICO       PTSUNNY   79  63  57 S5        30.21S
COLLEGE PARK*  SUNNY     78  62  57 CALM      30.20F
LEESBURG*      PTSUNNY   79  64  61 SE3       30.22F
MANASSAS*      PTSUNNY   78  62  57 SE7       30.20F
GAITHERSBURG*  MOSUNNY   79  63  57 CALM      30.22F

$$

MDZ006>007-011-014-261700-
BALTIMORE METRO

CITY           SKY/WX    TMP DP  RH WIND       PRES   REMARKS
BWI AIRPORT    PTSUNNY   77  68  73 E10       30.21S
MD SCIENCE CTR   N/A     77  67  71 MISG      30.21F
MARTIN STATE   CLOUDY    75  70  83 E6        30.23R
ANNAPOLIS      MOSUNNY   77  69  76 SE6       30.21R
FORT MEADE*    MOSUNNY   77  64  65 NE5       30.23F

$$

MDZ012-015-019>023-261700-
MARYLAND EASTERN SHORE

CITY           SKY/WX    TMP DP  RH WIND       PRES   REMARKS
OCEAN CITY     PTSUNNY   74  68  81 SE7       30.23R
SALISBURY      CLOUDY    77  66  68 E8        30.20F
BAY BRIDGE AP* CLOUDY    77  66  69 NE6       30.22R
CAMBRIDGE*     PTSUNNY   79  64  61 S5        30.20F
EASTON*        PTSUNNY   77  66  69 E9        30.25F

$$

MDZ017>025-261700-
SOUTHERN MARYLAND

CITY           SKY/WX    TMP DP  RH WIND       PRES   REMARKS
PATUXENT RIVER PTSUNNY   79  68  69 SE8       30.20F
ST INIGOES     CLOUDY    78  68  71 E6        30.19F
LEONARDTOWN*   SUNNY     79  64  61 SE5       30.21F

$$

MDZ003>005-261700-
NORTH CENTRAL MARYLAND

CITY           SKY/WX    TMP DP  RH WIND       PRES   REMARKS
FREDERICK*     PTSUNNY   77  61  57 CALM      30.24F
HAGERSTOWN APT MOSUNNY   76  60  57 CALM      30.21F
WESTMINSTER*   PTSUNNY   75  63  64 CALM      30.22F

$$

MDZ501>502-261700-
WESTERN MARYLAND

CITY           SKY/WX    TMP DP  RH WIND       PRES   REMARKS
OAKLAND*       MOSUNNY   70  61  73 S6        30.23R
CUMBERLAND*    MOSUNNY   73  63  68 SE5       30.25S

$$

VAZ025>031-261700-
SHENANDOAH VALLEY

CITY           SKY/WX    TMP DP  RH WIND       PRES   REMARKS
WINCHESTER*    MOSUNNY   73  61  64 SE9       30.21F
FRONT ROYAL*   SUNNY     79  63  57 S3        30.20F
LURAY*         MOSUNNY   77  61  57 S3        30.21F
NEW MARKET*    CLOUDY    77  59  53 SW6       30.20F
STAUNTON*      CLOUDY    75  60  58 S6        30.25F
WAYNESBORO*    CLOUDY    74  62  67 CALM      30.25S

$$

WVZ021-048>050-054>055-261700-
EASTERN WEST VIRGINIA PANHANDLE

CITY           SKY/WX    TMP DP  RH WIND       PRES   REMARKS
MARTINSBURG    PTSUNNY   75  60  59 SE8       30.20F
PETERSBURG*    SUNNY     80  63  55 SE6       30.19F

$$

VAZ036>039-050-261700-
CENTRAL FOOTHILLS

CITY           SKY/WX    TMP DP  RH WIND       PRES   REMARKS
CHARLOTTESVILL MOSUNNY   78  62  57 CALM      30.22S
CULPEPER*      CLOUDY    79  63  57 CALM      30.21F
ORANGE*        CLOUDY    79  61  53 SW6       30.21F
GORDONSVILLE*  PTSUNNY   78  63  59 CALM      30.21F
WARRENTON*     CLOUDY    82  59  44 SE6       30.20F

$$

VAZ055>057-261700-
NORTH AND CENTRAL PIEDMONT

CITY           SKY/WX    TMP DP  RH WIND       PRES   REMARKS
FREDERICKSBRG* MOSUNNY   80  67  64 CALM      30.19S
STAFFORD*      PTSUNNY   78  64  63 CALM      30.25S

$$

NCZ024-NYZ072-PAZ021-071-VAZ022-071-261700-
OTHER REGIONAL OBSERVATIONS

CITY           SKY/WX    TMP DP  RH WIND       PRES   REMARKS
NEW YORK CITY  MOSUNNY   76  55  48 CALM      30.26F
PHILADELPHIA   PTSUNNY   74  61  63 E5        30.24S
PITTSBURGH     PTSUNNY   75  60  59 E6        30.18F
ROANOKE        CLOUDY    74  62  66 E6        30.26S
RICHMOND       MOSUNNY   83  65  54 VRB5      30.19F
RALEIGH        MOSUNNY   84  64  50 E9        30.18F

$$

ANZ530>537-261700-
MARINE OBSERVATIONS

STATION/POSITION TIME  TEMP    WIND        PRES
                       AIR SEA DIR/SP/G
                 (UTC) (F)     (DEG/KT/KT) (MB)
THOMAS PT LIGHT  1600   75 81  120/  5/  6   N/A
BALT KEY BRIDGE  1548   74     120/  7/  9 1023.1R
COVE POINT       1548   76     150/  4/  5 1023.3F
LEWISETTA        1548   76 83  110/  7/  8 1022.5F
SOLOMONS ISLAND  1548   76 84  100/  7/  8   N/A
PINEY POINT      1548          160/  6/  8   N/A

$$





USA.gov is the U.S. government's official web portal to all federal, state and local government web resources and services.